TimeMDT,TemperatureF,Dew PointF,Humidity,Sea Level PressureIn,VisibilityMPH,Wind Direction,Wind SpeedMPH,Gust SpeedMPH,PrecipitationIn,Events,Conditions,WindDirDegrees,DateUTC
12:55 AM,37.0,28.9,73,30.00,10.0,NE,15.0,-,N/A,,Clear,40,2013-04-01 06:55:00
1:55 AM,35.1,28.9,78,30.01,10.0,Calm,Calm,-,N/A,,Clear,0,2013-04-01 07:55:00
2:55 AM,30.0,26.1,85,30.06,10.0,North,11.5,-,N/A,,Clear,360,2013-04-01 08:55:00
3:55 AM,27.0,24.1,89,30.06,10.0,NW,3.5,-,N/A,,Clear,310,2013-04-01 09:55:00
4:55 AM,26.1,23.0,88,30.06,10.0,NNW,6.9,-,N/A,,Clear,330,2013-04-01 10:55:00
5:55 AM,24.1,21.9,91,30.10,10.0,NNW,5.8,-,N/A,,Clear,330,2013-04-01 11:55:00
6:55 AM,23.0,21.0,92,30.13,10.0,North,3.5,-,N/A,,Clear,350,2013-04-01 12:55:00
7:55 AM,28.9,21.9,75,30.16,10.0,Calm,Calm,-,N/A,,Clear,0,2013-04-01 13:55:00
8:55 AM,32.0,23.0,69,30.18,10.0,South,4.6,-,N/A,,Clear,180,2013-04-01 14:55:00
9:25 AM,33.8,23.0,65,30.17,10.0,ESE,8.1,-,N/A,,Mostly Cloudy,110,2013-04-01 15:25:00
9:48 AM,35.6,24.8,65,30.18,10.0,SE,10.4,-,N/A,,Scattered Clouds,140,2013-04-01 15:48:00
9:55 AM,36.0,25.0,64,30.14,10.0,SSE,12.7,-,N/A,,Partly Cloudy,160,2013-04-01 15:55:00
10:55 AM,37.0,25.0,62,30.12,10.0,SSE,10.4,-,N/A,,Clear,150,2013-04-01 16:55:00
11:55 AM,42.1,26.1,53,30.09,10.0,SE,17.3,23.0,N/A,,Partly Cloudy,140,2013-04-01 17:55:00
12:55 PM,43.0,28.0,56,30.09,10.0,SSE,18.4,26.5,N/A,,Clear,150,2013-04-01 18:55:00
1:55 PM,43.0,28.0,56,30.07,10.0,SE,18.4,25.3,N/A,,Clear,130,2013-04-01 19:55:00
2:55 PM,43.0,28.0,56,30.07,10.0,ESE,17.3,25.3,N/A,,Clear,120,2013-04-01 20:55:00
3:55 PM,42.1,28.0,58,30.08,10.0,SE,17.3,25.3,N/A,,Clear,140,2013-04-01 21:55:00
4:55 PM,43.0,28.0,56,30.08,10.0,SE,15.0,-,N/A,,Clear,130,2013-04-01 22:55:00
5:55 PM,39.9,28.0,63,30.10,10.0,SE,18.4,-,N/A,,Mostly Cloudy,140,2013-04-01 23:55:00
6:55 PM,37.9,27.0,65,30.12,10.0,SE,19.6,25.3,N/A,,Mostly Cloudy,140,2013-04-02 00:55:00
7:55 PM,35.1,27.0,72,30.13,10.0,SSE,13.8,-,N/A,,Overcast,150,2013-04-02 01:55:00
8:19 PM,35.6,28.4,75,30.11,10.0,SSE,10.4,-,N/A,,Overcast,160,2013-04-02 02:19:00
8:55 PM,35.1,28.0,76,30.14,10.0,SSE,11.5,-,N/A,,Overcast,150,2013-04-02 02:55:00
9:55 PM,34.0,27.0,75,30.15,10.0,South,3.5,-,N/A,,Overcast,170,2013-04-02 03:55:00
10:39 PM,33.8,24.8,70,30.13,10.0,South,10.4,-,N/A,,Overcast,170,2013-04-02 04:39:00
10:47 PM,33.8,24.8,70,30.13,10.0,South,10.4,-,N/A,,Overcast,170,2013-04-02 04:47:00
10:55 PM,34.0,25.0,70,30.14,10.0,SSE,13.8,-,N/A,,Overcast,160,2013-04-02 04:55:00
11:55 PM,33.1,24.1,70,30.12,10.0,South,10.4,-,N/A,,Overcast,170,2013-04-02 05:55:00